Location: Napa Soda Springs
(38.3907°N, 122.2794°W)
Time: 08:26:34
(UTC+00:00)

SJ-12 - Pass Details

Date: 29 October 2020
Orbit: 567 x 586 km, 97.7° (Epoch: 02 December)

Event Time Altitude Azimuth Distance (km) Brightness Sun altitude
Rises 13:29:36 0° 7° (N) 2,805 7.4 -13.0°
Reaches altitude 10° 13:31:47 10° 3° (N) 1,899 6.5 -12.5°
Maximum altitude 13:35:49 56° 286° (WNW) 689 3.9 -11.8°
Drops below altitude 10° 13:39:47 10° 207° (SSW) 1,874 6.3 -11.0°
Sets 13:41:56 0° 203° (SSW) 2,764 7.3 -10.6°
